User: anonymous   Login
Location: M.A.R.S.Observatory
(35.4031°N, 81.5481°W)
Time: 01:03:09
(UTC-04:00)
Language:

SL-8 R/B - Orbit

View from above orbital plane
View from above orbital plane
View from above satellite
View from above satellite

Ground track
Ground track

The orbit data is extracted from the following two-line orbital elements,

1 33066U 08031G   16242.87656205 -.00000020  00000-0  29415-4 0  9992
2 33066  48.4448  32.9199 0007879 322.1911 195.7134 14.69460842439915
Epoch (UTC): 29 August 2016 21:02:14
Eccentricity: 0.0007879
inclination: 48.4448°
perigee height: 657 km
apogee height: 668 km
right ascension of ascending node: 32.9199°
argument of perigee: 322.1911°
revolutions per day: 14.69460842
mean anomaly at epoch: 195.7134°
orbit number at epoch: 43991

The dashed part of the orbit path shows where the satellite is in the earth's shadow,  

DLR